AFR41DU LFPG-LFMN

Flight info

Callsign AFR41DU
Flight time 1h 21m
Altitude 32000
Route LATRA DCT LAMUT DCT UTUVA DCT LERGA DCT LIQID UY30 LATAM UY22 NISAR
Aircraft A320/M-SDE2E3FGIJ1RWY/HB1

Departure

Time 2026-05-07 16:28
Airport Charles de Gaulle International Airport (LFPG)

Arrival

Time 2026-05-07 17:50
Airport Nice-Côte d'Azur Airport (LFMN)
Time Latitude Longitude Altitude Speed Heading
2026-05-07 15:48 49.00717 2.58003 361 ft 0 kts 231°
2026-05-07 16:11 49.00725 2.58017 366 ft 3 kts 238°
2026-05-07 16:11 49.00735 2.58041 360 ft 3 kts 209°
2026-05-07 16:11 49.00746 2.58061 362 ft 3 kts 263°
2026-05-07 16:12 49.00748 2.58089 361 ft 2 kts 267°
2026-05-07 16:12 49.00742 2.58114 362 ft 3 kts 310°
2026-05-07 16:12 49.00733 2.58127 366 ft 3 kts 334°
2026-05-07 16:12 49.00729 2.58130 365 ft 0 kts 355°
2026-05-07 16:19 49.00731 2.58130 365 ft 0 kts 355°
2026-05-07 16:19 49.00734 2.58130 365 ft 0 kts 355°
2026-05-07 16:20 49.00737 2.58129 359 ft 2 kts 355°
2026-05-07 16:20 49.00767 2.58126 359 ft 6 kts 355°
2026-05-07 16:20 49.00824 2.58117 357 ft 10 kts 354°
2026-05-07 16:20 49.00878 2.58099 363 ft 8 kts 333°
2026-05-07 16:21 49.00902 2.57996 357 ft 17 kts 263°
2026-05-07 16:21 49.00890 2.57758 361 ft 28 kts 267°
2026-05-07 16:21 49.00872 2.57428 357 ft 34 kts 266°
2026-05-07 16:21 49.00854 2.57100 357 ft 26 kts 264°
2026-05-07 16:22 49.00841 2.56856 360 ft 18 kts 264°
2026-05-07 16:22 49.00831 2.56659 357 ft 19 kts 265°
2026-05-07 16:22 49.00817 2.56455 359 ft 20 kts 262°
2026-05-07 16:22 49.00816 2.56359 362 ft 1 kts 269°
2026-05-07 16:23 49.00813 2.56351 363 ft 2 kts 248°
2026-05-07 16:23 49.00806 2.56324 360 ft 4 kts 253°
2026-05-07 16:23 49.00799 2.56258 357 ft 8 kts 262°
2026-05-07 16:23 49.00794 2.56161 357 ft 9 kts 265°
2026-05-07 16:24 49.00780 2.56061 364 ft 11 kts 263°
2026-05-07 16:24 49.00768 2.55926 359 ft 14 kts 261°
2026-05-07 16:24 49.00752 2.55761 359 ft 17 kts 262°
2026-05-07 16:24 49.00737 2.55566 365 ft 20 kts 264°
2026-05-07 16:25 49.00717 2.55354 364 ft 21 kts 248°
2026-05-07 16:25 49.00607 2.55260 361 ft 21 kts 164°
2026-05-07 16:25 49.00458 2.55324 362 ft 23 kts 164°
2026-05-07 16:25 49.00294 2.55396 361 ft 26 kts 163°
2026-05-07 16:26 49.00116 2.55473 364 ft 27 kts 163°
2026-05-07 16:26 48.99950 2.55545 361 ft 21 kts 163°
2026-05-07 16:26 48.99847 2.55675 365 ft 20 kts 116°
2026-05-07 16:26 48.99759 2.55804 363 ft 16 kts 176°
2026-05-07 16:27 48.99666 2.55818 362 ft 13 kts 174°
2026-05-07 16:27 48.99601 2.55904 356 ft 15 kts 85°
2026-05-07 16:27 48.99608 2.55988 357 ft 0 kts 86°
2026-05-07 16:27 48.99624 2.56310 365 ft 63 kts 84°
2026-05-07 16:28 48.99678 2.57302 355 ft 124 kts 85°
2026-05-07 16:28 48.99762 2.58871 358 ft 170 kts 85°
2026-05-07 16:28 48.99854 2.60782 622 ft 183 kts 85°
2026-05-07 16:28 48.99903 2.62661 1261 ft 176 kts 88°
2026-05-07 16:29 48.99926 2.64523 1911 ft 176 kts 87°
2026-05-07 16:29 49.00039 2.66478 2303 ft 198 kts 83°
2026-05-07 16:29 49.00210 2.68751 2568 ft 235 kts 83°
2026-05-07 16:29 49.00383 2.71349 3227 ft 253 kts 84°
2026-05-07 16:30 49.00542 2.74055 4188 ft 258 kts 84°
2026-05-07 16:30 49.00676 2.76802 5130 ft 263 kts 89°
2026-05-07 16:30 49.00558 2.79606 6009 ft 268 kts 98°
2026-05-07 16:30 49.00284 2.82437 6871 ft 272 kts 99°
2026-05-07 16:31 48.99981 2.85265 7732 ft 276 kts 100°
2026-05-07 16:31 48.99666 2.88180 8615 ft 281 kts 100°
2026-05-07 16:31 48.99349 2.91137 9497 ft 286 kts 100°
2026-05-07 16:31 48.99026 2.94160 10299 ft 293 kts 100°
2026-05-07 16:32 48.98498 2.97266 10670 ft 314 kts 115°
2026-05-07 16:32 48.97164 2.99948 11175 ft 325 kts 143°
2026-05-07 16:32 48.95121 3.01381 11928 ft 327 kts 171°
2026-05-07 16:32 48.92870 3.01220 12756 ft 327 kts 198°
2026-05-07 16:33 48.90929 2.99541 13617 ft 328 kts 225°
2026-05-07 16:33 48.89496 2.96834 14444 ft 330 kts 236°
2026-05-07 16:33 48.88219 2.93912 15238 ft 333 kts 237°
2026-05-07 16:33 48.86928 2.90955 16028 ft 337 kts 237°
2026-05-07 16:34 48.85604 2.87997 16806 ft 341 kts 236°
2026-05-07 16:34 48.84248 2.85026 17566 ft 344 kts 236°
2026-05-07 16:34 48.82865 2.82031 18326 ft 348 kts 236°
2026-05-07 16:34 48.81462 2.79014 18966 ft 352 kts 235°
2026-05-07 16:35 48.80038 2.75967 19615 ft 355 kts 235°
2026-05-07 16:35 48.78599 2.72895 20263 ft 359 kts 235°
2026-05-07 16:35 48.77145 2.69797 20920 ft 362 kts 235°
2026-05-07 16:35 48.75678 2.66677 21547 ft 365 kts 235°
2026-05-07 16:36 48.74196 2.63529 22177 ft 368 kts 235°
2026-05-07 16:36 48.72648 2.60468 22782 ft 372 kts 229°
2026-05-07 16:36 48.70703 2.57869 23391 ft 376 kts 216°
2026-05-07 16:36 48.68481 2.55730 23909 ft 380 kts 212°
2026-05-07 16:37 48.66198 2.53701 24376 ft 383 kts 212°
2026-05-07 16:37 48.63884 2.51665 24846 ft 386 kts 212°
2026-05-07 16:37 48.61557 2.49613 25309 ft 388 kts 212°
2026-05-07 16:37 48.59220 2.47545 25777 ft 390 kts 212°
2026-05-07 16:38 48.56864 2.45457 26228 ft 393 kts 212°
2026-05-07 16:38 48.54500 2.43363 26662 ft 395 kts 211°
2026-05-07 16:38 48.52071 2.41467 27083 ft 399 kts 205°
2026-05-07 16:38 48.49427 2.40139 27494 ft 404 kts 194°
2026-05-07 16:39 48.46623 2.39569 27904 ft 409 kts 184°
2026-05-07 16:39 48.43769 2.39629 28309 ft 413 kts 179°
2026-05-07 16:39 48.40892 2.39860 28695 ft 415 kts 179°
2026-05-07 16:39 48.37995 2.40111 29095 ft 417 kts 179°
2026-05-07 16:40 48.35082 2.40356 29473 ft 420 kts 179°
2026-05-07 16:40 48.32155 2.40595 29850 ft 422 kts 179°
2026-05-07 16:40 48.29221 2.41030 30188 ft 426 kts 172°
2026-05-07 16:40 48.26329 2.42104 30469 ft 431 kts 165°
2026-05-07 16:41 48.23480 2.43559 30767 ft 434 kts 163°
2026-05-07 16:41 48.20624 2.45092 31053 ft 436 kts 162°
2026-05-07 16:41 48.17754 2.46636 31320 ft 438 kts 163°
2026-05-07 16:41 48.14877 2.48176 31594 ft 441 kts 163°
2026-05-07 16:42 48.12012 2.49703 31873 ft 443 kts 163°
2026-05-07 16:42 48.09091 2.51253 32011 ft 444 kts 163°
2026-05-07 16:42 48.06178 2.52756 32024 ft 441 kts 164°
2026-05-07 16:43 48.00367 2.55638 32021 ft 440 kts 165°
2026-05-07 16:43 47.94578 2.58463 32021 ft 440 kts 165°
2026-05-07 16:44 47.88717 2.61327 32018 ft 441 kts 165°
2026-05-07 16:44 47.82923 2.64163 32015 ft 441 kts 165°
2026-05-07 16:45 47.77096 2.67012 31994 ft 441 kts 165°
2026-05-07 16:45 47.71264 2.69858 32011 ft 441 kts 165°
2026-05-07 16:46 47.65423 2.72700 32012 ft 441 kts 165°
2026-05-07 16:46 47.59591 2.75531 32007 ft 441 kts 165°
2026-05-07 16:47 47.53753 2.78359 31997 ft 441 kts 165°
2026-05-07 16:47 47.47952 2.81162 32004 ft 441 kts 165°
2026-05-07 16:48 47.42108 2.83978 31991 ft 441 kts 165°
2026-05-07 16:48 47.36269 2.86786 32001 ft 441 kts 165°
2026-05-07 16:49 47.30421 2.89593 31983 ft 441 kts 166°
2026-05-07 16:49 47.24577 2.92390 31993 ft 442 kts 166°
2026-05-07 16:50 47.18750 2.95173 31993 ft 442 kts 166°
2026-05-07 16:50 47.12897 2.97962 31989 ft 442 kts 166°
2026-05-07 16:51 47.07002 3.00549 31993 ft 441 kts 168°
2026-05-07 16:51 47.01088 3.02954 31993 ft 441 kts 168°
2026-05-07 16:52 46.95173 3.05345 31994 ft 441 kts 168°
2026-05-07 16:52 46.89308 3.07737 31991 ft 439 kts 168°
2026-05-07 16:53 46.83426 3.10143 31991 ft 437 kts 168°
2026-05-07 16:53 46.77557 3.12541 31989 ft 437 kts 168°
2026-05-07 16:54 46.71729 3.14915 31988 ft 437 kts 168°
2026-05-07 16:54 46.65862 3.17299 31986 ft 437 kts 168°
2026-05-07 16:55 46.59996 3.19678 31987 ft 437 kts 168°
2026-05-07 16:55 46.54130 3.22052 31987 ft 437 kts 168°
2026-05-07 16:56 46.48269 3.24417 31985 ft 438 kts 168°
2026-05-07 16:56 46.39502 3.27947 31988 ft 438 kts 168°
2026-05-07 16:57 46.33628 3.30304 31990 ft 438 kts 168°
2026-05-07 16:57 46.27752 3.32658 31993 ft 437 kts 168°
2026-05-07 16:58 46.21895 3.34999 31993 ft 437 kts 168°
2026-05-07 16:58 46.16031 3.37337 31993 ft 437 kts 168°
2026-05-07 16:59 46.10205 3.39655 31988 ft 436 kts 168°
2026-05-07 16:59 46.04345 3.41982 31992 ft 436 kts 168°
2026-05-07 17:00 45.98501 3.44298 31991 ft 436 kts 168°
2026-05-07 17:00 45.92650 3.46611 31988 ft 435 kts 169°
2026-05-07 17:01 45.86844 3.48904 31975 ft 435 kts 168°
2026-05-07 17:01 45.81012 3.51347 31975 ft 436 kts 167°
2026-05-07 17:02 45.75201 3.53875 31974 ft 436 kts 167°
2026-05-07 17:02 45.69385 3.56400 31975 ft 436 kts 167°
2026-05-07 17:03 45.63581 3.58900 31974 ft 435 kts 167°
2026-05-07 17:03 45.57822 3.61366 31976 ft 435 kts 167°
2026-05-07 17:04 45.52019 3.63845 31966 ft 435 kts 167°
2026-05-07 17:04 45.46215 3.66320 31966 ft 434 kts 167°
2026-05-07 17:05 45.40423 3.68785 31963 ft 434 kts 167°
2026-05-07 17:05 45.34659 3.71232 31978 ft 434 kts 167°
2026-05-07 17:06 45.28957 3.74153 31961 ft 440 kts 157°
2026-05-07 17:06 45.24028 3.79408 31983 ft 451 kts 136°
2026-05-07 17:07 45.20880 3.85370 31982 ft 456 kts 128°
2026-05-07 17:07 45.17430 3.92959 31990 ft 459 kts 126°
2026-05-07 17:08 45.14026 4.00619 31987 ft 459 kts 126°
2026-05-07 17:08 45.10584 4.08241 31973 ft 459 kts 127°
2026-05-07 17:09 45.07112 4.15825 31978 ft 458 kts 127°
2026-05-07 17:09 45.03562 4.23300 31962 ft 455 kts 133°
2026-05-07 17:10 44.99455 4.30020 31961 ft 454 kts 136°
2026-05-07 17:10 44.95186 4.36610 31964 ft 454 kts 137°
2026-05-07 17:11 44.90887 4.43159 31949 ft 454 kts 137°
2026-05-07 17:11 44.86627 4.49654 31955 ft 454 kts 137°
2026-05-07 17:12 44.82339 4.56197 31955 ft 454 kts 137°
2026-05-07 17:12 44.78042 4.62745 31952 ft 456 kts 137°
2026-05-07 17:13 44.73733 4.69295 31943 ft 456 kts 137°
2026-05-07 17:13 44.69416 4.75844 31944 ft 456 kts 137°
2026-05-07 17:14 44.65102 4.82372 31940 ft 456 kts 137°
2026-05-07 17:14 44.60875 4.89016 31941 ft 457 kts 136°
2026-05-07 17:15 44.56686 4.95720 31926 ft 457 kts 136°
2026-05-07 17:15 44.52487 5.02418 31935 ft 458 kts 136°
2026-05-07 17:16 44.48301 5.09080 31932 ft 458 kts 136°
2026-05-07 17:16 44.44084 5.15774 31933 ft 458 kts 136°
2026-05-07 17:17 44.39888 5.22422 31872 ft 450 kts 136°
2026-05-07 17:17 44.35493 5.28493 31931 ft 444 kts 146°
2026-05-07 17:18 44.30627 5.33845 31888 ft 441 kts 147°
2026-05-07 17:18 44.25786 5.39093 31843 ft 450 kts 148°
2026-05-07 17:19 44.20799 5.44503 31814 ft 453 kts 148°
2026-05-07 17:19 44.18316 5.47202 31463 ft 447 kts 148°
2026-05-07 17:19 44.15903 5.49820 30829 ft 447 kts 148°
2026-05-07 17:20 44.13442 5.52481 30185 ft 448 kts 147°
2026-05-07 17:20 44.10982 5.55144 29573 ft 447 kts 147°
2026-05-07 17:20 44.08544 5.57784 29054 ft 443 kts 147°
2026-05-07 17:20 44.06107 5.60417 28512 ft 439 kts 147°
2026-05-07 17:21 44.03727 5.62988 28003 ft 436 kts 147°
2026-05-07 17:21 44.01334 5.65568 27500 ft 432 kts 147°
2026-05-07 17:21 43.98969 5.68115 27021 ft 429 kts 147°
2026-05-07 17:21 43.96615 5.70647 26479 ft 426 kts 147°
2026-05-07 17:22 43.94262 5.73146 25846 ft 425 kts 149°
2026-05-07 17:22 43.91790 5.75358 25243 ft 421 kts 155°
2026-05-07 17:22 43.89178 5.77147 24669 ft 417 kts 161°
2026-05-07 17:22 43.86466 5.78501 24090 ft 412 kts 167°
2026-05-07 17:23 43.83690 5.79425 23550 ft 408 kts 173°
2026-05-07 17:23 43.80888 5.79921 22901 ft 404 kts 179°
2026-05-07 17:23 43.78088 5.79995 22268 ft 400 kts 185°
2026-05-07 17:23 43.75331 5.79661 21654 ft 396 kts 190°
2026-05-07 17:24 43.72653 5.78888 21073 ft 391 kts 198°
2026-05-07 17:24 43.70114 5.77614 20503 ft 386 kts 206°
2026-05-07 17:24 43.67819 5.75738 19959 ft 381 kts 217°
2026-05-07 17:24 43.65874 5.73348 19436 ft 377 kts 228°
2026-05-07 17:25 43.64306 5.70470 18932 ft 374 kts 239°
2026-05-07 17:25 43.63199 5.67242 18438 ft 371 kts 250°
2026-05-07 17:25 43.62582 5.63801 17906 ft 369 kts 261°
2026-05-07 17:25 43.62455 5.60259 17246 ft 370 kts 271°
2026-05-07 17:26 43.62815 5.56746 16603 ft 371 kts 282°
2026-05-07 17:26 43.63638 5.53365 15961 ft 372 kts 292°
2026-05-07 17:26 43.64885 5.50232 15383 ft 372 kts 302°
2026-05-07 17:26 43.66500 5.47441 14794 ft 373 kts 312°
2026-05-07 17:27 43.68407 5.45080 14220 ft 373 kts 321°
2026-05-07 17:27 43.70591 5.43143 13655 ft 372 kts 330°
2026-05-07 17:27 43.72954 5.41684 13035 ft 372 kts 336°
2026-05-07 17:27 43.75327 5.40275 12374 ft 370 kts 332°
2026-05-07 17:28 43.77698 5.38899 11726 ft 371 kts 345°
2026-05-07 17:28 43.80262 5.38752 11105 ft 371 kts
2026-05-07 17:28 43.82681 5.39939 10495 ft 369 kts 31°
2026-05-07 17:28 43.84609 5.42182 10198 ft 356 kts 50°
2026-05-07 17:29 43.85880 5.45032 9959 ft 342 kts 69°
2026-05-07 17:29 43.86436 5.48107 9732 ft 327 kts 87°
2026-05-07 17:29 43.86315 5.51170 9478 ft 313 kts 103°
2026-05-07 17:29 43.85562 5.53932 9225 ft 302 kts 119°
2026-05-07 17:30 43.84493 5.56375 8995 ft 291 kts 124°
2026-05-07 17:30 43.83407 5.58679 8947 ft 280 kts 124°
2026-05-07 17:30 43.82340 5.60931 8944 ft 280 kts 124°
2026-05-07 17:30 43.81272 5.63205 8940 ft 282 kts 123°
2026-05-07 17:31 43.80208 5.65492 8944 ft 282 kts 123°
2026-05-07 17:31 43.79150 5.67780 8943 ft 282 kts 123°
2026-05-07 17:31 43.78107 5.70045 8940 ft 282 kts 123°
2026-05-07 17:31 43.77052 5.72338 8940 ft 282 kts 123°
2026-05-07 17:32 43.75998 5.74626 8942 ft 282 kts 123°
2026-05-07 17:32 43.74944 5.76913 8945 ft 283 kts 123°
2026-05-07 17:32 43.73885 5.79214 8941 ft 283 kts 123°
2026-05-07 17:32 43.72825 5.81513 8942 ft 283 kts 123°
2026-05-07 17:33 43.71766 5.83810 8944 ft 283 kts 123°
2026-05-07 17:33 43.70708 5.86104 8941 ft 283 kts 124°
2026-05-07 17:33 43.69650 5.88397 8940 ft 283 kts 124°
2026-05-07 17:33 43.68593 5.90687 8941 ft 283 kts 123°
2026-05-07 17:34 43.67533 5.92978 8940 ft 283 kts 123°
2026-05-07 17:34 43.66485 5.95241 8944 ft 283 kts 123°
2026-05-07 17:34 43.65407 5.97566 8944 ft 283 kts 123°
2026-05-07 17:34 43.64361 5.99821 8944 ft 283 kts 123°
2026-05-07 17:35 43.63299 6.02110 8945 ft 282 kts 123°
2026-05-07 17:35 43.62240 6.04392 8944 ft 282 kts 123°
2026-05-07 17:35 43.61183 6.06667 8945 ft 282 kts 123°
2026-05-07 17:35 43.60124 6.08955 8942 ft 283 kts 121°
2026-05-07 17:36 43.59244 6.11378 8941 ft 283 kts 113°
2026-05-07 17:36 43.58518 6.13910 8941 ft 284 kts 111°
2026-05-07 17:36 43.57822 6.16458 8943 ft 284 kts 111°
2026-05-07 17:36 43.57129 6.19004 8942 ft 284 kts 111°
2026-05-07 17:37 43.56433 6.21552 8940 ft 284 kts 111°
2026-05-07 17:37 43.55734 6.24100 8943 ft 284 kts 111°
2026-05-07 17:37 43.55035 6.26644 8941 ft 284 kts 111°
2026-05-07 17:37 43.54332 6.29193 8942 ft 284 kts 111°
2026-05-07 17:38 43.53639 6.31704 8942 ft 284 kts 111°
2026-05-07 17:38 43.52935 6.34249 8940 ft 284 kts 111°
2026-05-07 17:38 43.52232 6.36792 8940 ft 284 kts 111°
2026-05-07 17:38 43.51526 6.39343 8940 ft 284 kts 111°
2026-05-07 17:39 43.50812 6.41875 8938 ft 283 kts 114°
2026-05-07 17:39 43.49808 6.44195 8941 ft 282 kts 129°
2026-05-07 17:39 43.48506 6.46229 8880 ft 282 kts 134°
2026-05-07 17:39 43.47163 6.48163 8785 ft 283 kts 134°
2026-05-07 17:40 43.45789 6.50121 8649 ft 284 kts 134°
2026-05-07 17:40 43.44417 6.52081 8473 ft 284 kts 134°
2026-05-07 17:40 43.43059 6.54028 8312 ft 278 kts 134°
2026-05-07 17:40 43.41751 6.55904 8177 ft 266 kts 134°
2026-05-07 17:41 43.40501 6.57714 8066 ft 256 kts 131°
2026-05-07 17:41 43.39519 6.59678 7990 ft 245 kts 114°
2026-05-07 17:41 43.39106 6.61925 7967 ft 243 kts 92°
2026-05-07 17:41 43.39311 6.64215 7676 ft 242 kts 75°
2026-05-07 17:42 43.39820 6.66427 7352 ft 242 kts 71°
2026-05-07 17:42 43.40375 6.68597 7009 ft 241 kts 71°
2026-05-07 17:42 43.40932 6.70776 6644 ft 241 kts 71°
2026-05-07 17:42 43.41474 6.72932 6474 ft 241 kts 71°
2026-05-07 17:43 43.42016 6.75105 6266 ft 239 kts 71°
2026-05-07 17:43 43.42551 6.77271 6021 ft 238 kts 71°
2026-05-07 17:43 43.43082 6.79429 5792 ft 238 kts 71°
2026-05-07 17:43 43.43452 6.80917 5642 ft 238 kts 70°
2026-05-07 17:44 43.44009 6.83069 5414 ft 240 kts 70°
2026-05-07 17:44 43.44560 6.85232 5185 ft 239 kts 71°
2026-05-07 17:44 43.45098 6.87394 4963 ft 239 kts 71°
2026-05-07 17:44 43.45629 6.89557 4736 ft 238 kts 72°
2026-05-07 17:45 43.46155 6.91711 4510 ft 237 kts 72°
2026-05-07 17:45 43.46677 6.93860 4260 ft 236 kts 72°
2026-05-07 17:45 43.47375 6.95898 4014 ft 236 kts 56°
2026-05-07 17:45 43.48431 6.97624 3995 ft 236 kts 44°
2026-05-07 17:46 43.49618 6.99189 3993 ft 236 kts 43°
2026-05-07 17:46 43.50797 7.00726 3961 ft 236 kts 44°
2026-05-07 17:46 43.51936 7.02346 3744 ft 235 kts 47°
2026-05-07 17:46 43.53075 7.03954 3405 ft 234 kts 45°
2026-05-07 17:47 43.54223 7.05503 3054 ft 228 kts 45°
2026-05-07 17:47 43.55341 7.07017 2728 ft 222 kts 45°
2026-05-07 17:47 43.56426 7.08495 2432 ft 216 kts 45°
2026-05-07 17:47 43.57479 7.09928 2149 ft 209 kts 45°
2026-05-07 17:48 43.58497 7.11312 1871 ft 200 kts 44°
2026-05-07 17:48 43.59481 7.12632 1616 ft 197 kts 44°
2026-05-07 17:48 43.60462 7.13956 1347 ft 197 kts 44°
2026-05-07 17:48 43.61432 7.15265 1085 ft 196 kts 46°
2026-05-07 17:49 43.62374 7.16568 873 ft 188 kts 46°
2026-05-07 17:49 43.63271 7.17790 664 ft 173 kts 44°
2026-05-07 17:49 43.64101 7.18910 374 ft 159 kts 46°
2026-05-07 17:49 43.64850 7.19954 157 ft 149 kts 46°
2026-05-07 17:50 43.65562 7.20922 27 ft 136 kts 45°
2026-05-07 17:50 43.66122 7.21701 25 ft 88 kts 45°
2026-05-07 17:50 43.66426 7.22124 26 ft 36 kts 45°
2026-05-07 17:50 43.66489 7.22212 30 ft 3 kts 45°
2026-05-07 17:51 43.66561 7.22311 24 ft 21 kts 45°
2026-05-07 17:51 43.66683 7.22469 24 ft 25 kts 39°
2026-05-07 17:51 43.66774 7.22453 24 ft 7 kts 313°
2026-05-07 17:51 43.66783 7.22440 24 ft 0 kts 313°
2026-05-07 17:52 43.66784 7.22439 24 ft 1 kts 313°
2026-05-07 17:52 43.66792 7.22426 28 ft 3 kts 312°
2026-05-07 17:52 43.66811 7.22396 24 ft 6 kts 307°
2026-05-07 17:52 43.66805 7.22322 29 ft 11 kts 234°
2026-05-07 17:53 43.66739 7.22227 25 ft 16 kts 226°
2026-05-07 17:53 43.66647 7.22099 27 ft 21 kts 226°
2026-05-07 17:53 43.66531 7.21941 25 ft 26 kts 224°
2026-05-07 17:53 43.66398 7.21756 25 ft 28 kts 225°
2026-05-07 17:54 43.66251 7.21555 26 ft 31 kts 225°
2026-05-07 17:54 43.66088 7.21333 27 ft 34 kts 224°
2026-05-07 17:54 43.65969 7.21167 27 ft 17 kts 225°
2026-05-07 17:54 43.65927 7.21108 30 ft 13 kts 226°
2026-05-07 17:55 43.65849 7.21003 27 ft 18 kts 224°
2026-05-07 17:55 43.65813 7.20874 28 ft 15 kts 321°
2026-05-07 17:55 43.65919 7.20841 27 ft 16 kts 353°
2026-05-07 17:55 43.66002 7.20799 25 ft 11 kts 289°
2026-05-07 17:56 43.65995 7.20721 26 ft 5 kts 259°
2026-05-07 17:56 43.65992 7.20701 25 ft 0 kts 259°